Погода в Лысьве

Россия / Пермский край     59°33′42″N   56°38′56″E
темп.,
°C
ветер,
м/с
пор.,
м/с
влажн.,
%
обл.,
%
осадки,
мм/ч
давл.,
гПа
погр.,
м
22 апреля, чт
чт2223:00+7ююв31264100 0.0 1028293
02:00+6ююв31164100 0.0 1027279
05:00+5ююв41465100 0.0 1027365
08:00+7ююв51359100 0.0 1026615
11:00+8ю51357100 0.0 10261212
14:00+5ю51191100 1.2 10271095
17:00+4ю51096100 2.1 1027912
20:00+4ю41095100 0.1 1027758
23 апреля, пт
пт2323:00+5ю4995100 0.1 1027817
02:00+5ююз4993100 0.2 1026826
05:00+5ю3994100 0.3 1026586
08:00+5ю3896100 0.1 1027476
11:00+5ю4893100 0.1 1028558
14:00+5ююз3791100 0.1 1028593
17:00+7ю358298 0.1 1028677
20:00+6ююв2588100 0.0 1028201
24 апреля, сб
сб2423:00+5ююв2694100 0.0 1029213
02:00+4ююв2595100 0.0 1028195
05:00+4вюв2494100 0.1 1027129
08:00+4вюв2591100 0.0 1026196
11:00+9вюв4665100 0.0 10241087
14:00+9вюв4662100 0.0 10221257
17:00+8вюв4874100 0.0 10211012
20:00+7вюв5984100 0.0 1020982
25 апреля, вс
вс2523:00+6вюв41084100 0.1 1018905
02:00+5вюв4985100 0.0 10171003
05:00+4вюв4997100 0.6 1016823
08:00+5вюв51184100 0.2 10141086
11:00+7юв61273100 0.4 10121389
14:00+4юв51195100 1.3 10111065
17:00+5юв51195100 1.8 1010865
20:00+5ююв51094100 2.0 10081159
26 апреля, пн
пн2623:00+3ююз41097100 2.8 1010579
02:00+3юз411905 0.3 1011461
05:00+1ю39965 0.3 1012237
08:00+3ююз410835 0.0 1012386
11:00+8юз595817 0.0 10121458
14:00+9юз6951100 0.8 10121987
17:00+9зюз595044 1.8 10122138
20:00+6юз49635 0.3 1012672